Regional Weather Roundup
Issued by NWS Upton, NY

Current Version | Previous Version | Text Only | Print | Product List | Glossary On
Versions: 1 2 3 4 5 6 7 8 9 10 11 12 13 14 15 16 17 18 19 20 21 22 23 24 25 26 27
000
ASUS41 KOKX 231605
RWROKX

REGIONAL WEATHER ROUNDUP
NATIONAL WEATHER SERVICE NEW YORK NY
1200 PM EDT SAT JUL 23 2016

NOTE: "FAIR" INDICATES FEW OR NO CLOUDS BELOW 12,000 FEET WITH NO
SIGNIFICANT WEATHER AND/OR OBSTRUCTIONS TO VISIBILITY.

NYZ071-072-176-178-NJZ106-104-231700-
NEW YORK CITY METRO AREA

CITY           SKY/WX    TMP DP  RH WIND       PRES   REMARKS
Central Park   SUNNY     90  61  37 VRB6G17   29.88S HX  90
LaGuardia APRT MOSUNNY   92  59  33 W16G22    29.84S HX  91
Kennedy INTL   MOSUNNY   94  60  32 W16       29.85F HX  94
Newark/Liberty MOSUNNY   94  58  29 W10G21    29.85S HX  93
BRNX BOT. GARD   N/A     90  59  35 NW14      29.85F
Wall St Helipt SUNNY     91  59  33 W7G17     29.86S HX  90
Teterboro      SUNNY     90  60  36 W8G17     29.84S
$$

NYZ177-179-078>081-231700-
LONG ISLAND NEW YORK

CITY           SKY/WX    TMP DP  RH WIND       PRES   REMARKS
FARMINGDALE    SUNNY     91  60  35 NW10      29.85S HX  90
ISLIP          MOSUNNY   91  60  35 NW16G23   29.83F HX  90
SHIRLEY        SUNNY     92  61  35 NW16      29.83F HX  92
RIVERHEAD      NOT AVBL
WESTHAMPTON    SUNNY     92  58  31 W17G23    29.84S HX  91
SOUTHAMPTON      N/A     90  64  43 NW9       29.78F HX  91
BRIDGEHAMPTON    N/A     90  68  48 N2        29.81S HX  93
EAST HAMPTON   FAIR      87  65  46 W10G16    29.81S
MONTAUK POINT    N/A     84  66  54 W12       29.81F
$$

NYZ052-065-067-231700-
HUDSON VALLEY

CITY           SKY/WX    TMP DP  RH WIND       PRES   REMARKS
WHITE PLAINS   MOSUNNY   89  59  36 NW13      29.85F
NEWBURGH       SUNNY     88  66  48 NW12G23   29.87S HX  90
MONTGOMERY     SUNNY     89  64  43 W9G18     29.85S HX  90
POUGHKEEPSIE   SUNNY     90  63  40 W12       29.83R HX  91
ALBANY         MOSUNNY   88  59  37 NW15      29.82S
$$

NJZ001-105-106-008-010-013-015-019>022-104-231700-
NEW JERSEY

CITY           SKY/WX    TMP DP  RH WIND       PRES   REMARKS
NEWARK/LIBERTY MOSUNNY   94  58  29 W10G21    29.85S HX  93
TETERBORO      SUNNY     90  60  36 W8G17     29.84S
CALDWELL       SUNNY     91  61  36 W12       29.86F HX  91
MORRISTOWN     MOSUNNY   90  63  40 W9G15     29.87S HX  90
SOMERVILLE     SUNNY     92  60  34 VRB7G16   29.86S HX  91
SUSSEX         SUNNY     90  59  35 VRB7      29.88S
ANDOVER          N/A     88  60  38 VRB7      29.90S
TRENTON        SUNNY     90  65  43 NW7       29.88F HX  92
MILLVILLE      SUNNY     92  71  50 W9        29.91F HX  98
ATLANTIC CITY  SUNNY     91  71  51 W8        29.90S HX  97
WRIGHTSTOWN    MOSUNNY   92  69  47 NW10      29.86S HX  97
TOMS RIVER     PTSUNNY   93  71  48 W17       29.89S HX 100
BELMAR         SUNNY     92  65  40 W13G21    29.88  HX  94
$$

PAZ047>061-062-071-231700-
EASTERN PENNSYLVANIA

CITY           SKY/WX    TMP DP  RH WIND       PRES   REMARKS
PHILADELPHIA   MOSUNNY   90  70  51 W12       29.91S HX  95
ALLENTOWN      SUNNY     91  61  36 W12G18    29.91S HX  91
SCRANTON       SUNNY     91  56  30 NW15G21   29.92S
$$

CTZ002-004>006-009-010-012-RIZ004-006-007-MAZ004-011-015-231700-
SOUTHERN NEW ENGLAND
 IN CT

CITY           SKY/WX    TMP DP  RH WIND       PRES   REMARKS
BRADLEY INTL   MOSUNNY   89  62  40 SW6G20    29.79F
HARTFORD       MOSUNNY   92  62  36 VRB7G17   29.79F HX  92
DANBURY        SUNNY     88  61  40 VRB6      29.86S
WTRBRY/OXFORD  MOSUNNY   84  63  48 NW9       29.88S
BRIDGEPORT     SUNNY     87  66  49 SW14      29.82S
MERIDEN        SUNNY     90  62  39 W8        29.81F HX  90
NEW HAVEN      SUNNY     87  66  49 S8        29.82S
CHESTER        FAIR      88  61  40 W9        29.83S
GROTON         SUNNY     92  62  36 W8G18     29.78F HX  92
WILLIMANTIC    NOT AVBL

 IN RI

CITY           SKY/WX    TMP DP  RH WIND       PRES   REMARKS
PROVIDENCE     MOSUNNY   88  64  44 NW13G22   29.78S
BLOCK ISLAND   SUNNY    N/A N/A N/A W15       29.80S
WESTERLY       SUNNY     91  60  35 NW10G18   29.79S HX  90

 IN MA

CITY           SKY/WX    TMP DP  RH WIND       PRES   REMARKS
BOSTON         SUNNY     93  57  29 W15       29.73S HX  91
WORCESTER      SUNNY     84  61  45 W16       29.82S
WESTFIELD      SUNNY     91  56  30 NW18      29.79F
PROVINCETOWN   SUNNY     85  67  54 W7        29.76S
NANTUCKET      SUNNY     79  70  74 W15       29.79R
$$

ANZ330-335-338-340-345-350-353-355-231700-
COASTAL MARINE OBSERVATIONS


STATION/POSITION TIME  SKY/WX   TEMP    WIND        PRES    VSBY  WAVE
                                AIR SEA DIR/SP/G                  HT/PER
                 (UTC)          (F)     (DEG/KT/KT) (MB)    (MI)  (FT/S)
NY HARB ENTRANCE 1450            76 73  270/  6/  6 1010.9          3/ 6
20S FIRE ISLAND  1450            76 74  280/  4/  6 1010.7          4/ 6
GREAT SOUTH BAY  1500            84 80  300/ 10/ 14   N/A
23 SSW MONTAUK P 1450            74 71  260/ 12/ 14 1010.0          4/ 6
15 E BARNEGAT LI 1522               75                N/A           3/ 6
HUDSON CANYON    1450            78 76              1011.1          5/ 7
KINGS POINT      1500            84 72              1010.6
EXECUTION ROCKS  1500            82     280/ 10/ 14   N/A
CENTRAL LI SOUND 1500            75 72  270/  8/ 10   N/A           1/ 3
EASTERN LI SOUND 1500            75 69  260/  8/ 12   N/A
ROBBINS REEF     1500            86     300/ 16/ 19 1010.4
$$


>>>>>>>>>>>>>>>>>>>>>>>>>>>> KEY <<<<<<<<<<<<<<<<<<<<<<<<<<<
>                                                          <
>     SKY/WX - SKY CONDITION/PRESENT WEATHER               <
>     TMP    - TEMPERATURE IN FAHRENHEIT                   <
>     DP     - DEWPOINT IN FAHRENHEIT                      <
>     RH     - RELATIVE HUMIDITY IN PERCENT                <
>     WIND   - DIRECTION AND SPEED IN MPH                  <
>     PRES   - MEAN SEA LEVEL PRESSURE IN INCHES OF HG     <
>     WCI    - WIND CHILL INDEX                            <
>     VSB    - VISIBILITY IN MILES                         <
>     HX     - HEAT INDEX                                  <
>     TC     - TEMPERATURE IN CELSIUS                      <
>     VRB    - VARIABLE WIND DIRECTION                     <
>                                                          <
>>>>>>>>>>>>>>>>>>>>>>>>>>>> KEY <<<<<<<<<<<<<<<<<<<<<<<<<<<






USA.gov is the U.S. government's official web portal to all federal, state and local government web resources and services.